User: anonymous   Login
Location: Owatonna
(44.0840°N, 93.2260°W)
Time: 18:54:37
(UTC-05:00)
Language:

Cosmos 839 Rocket - Orbit

View from above orbital plane
View from above orbital plane
View from above satellite
View from above satellite

Ground track
Ground track

The orbit data is extracted from the following two-line orbital elements,

1 09013U 76067B   15147.15047221 -.00000047  00000-0  26391-4 0  9996
2 09013 065.8670 026.6277 0713797 007.0090 163.1463 12.35317437753754
Epoch (UTC): 27 May 2015 03:36:40
Eccentricity: 0.0713797
inclination: 65.8670°
perigee height: 962 km
apogee height: 2091 km
right ascension of ascending node: 26.6277°
argument of perigee: 7.0090°
revolutions per day: 12.35317437
mean anomaly at epoch: 163.1463°
orbit number at epoch: 75375

The dashed part of the orbit path shows where the satellite is in the earth's shadow,  

DLR